Skip Page Navigation
NASA JPL Caltech
NASA Logo - Jet Propulsion Laboratory + View the NASA Portal
+ Center for Near-Earth Object Studies
JPL Home Earth Solar System Stars & Galaxies Technology
JPL Solar System Dynamics
BODIES ORBITS EPHEMERIDES TOOLS PHYSICAL DATA DISCOVERY FAQ SITE MAP
JPL Small-Body Database Browser
Search: [ help ]  
344692 (2003 SL335)
Classification: Main-belt Asteroid          SPK-ID: 2344692
Ephemeris | Orbit Diagram | Orbital Elements | Mission Design | Physical Parameters | Discovery Circumstances | Close-Approach Data ]

[ show orbit diagram ]
Orbital Elements at Epoch 2459000.5 (2020-May-31.0) TDB
Reference: JPL 10 (heliocentric ecliptic J2000)
 Element Value Uncertainty (1-sigma)   Units 
e .04566395652375381 7.03e-08  
a 2.736564264371395 2.4612e-08 au
q 2.611601912778681 1.8861e-07 au
i 5.813784753183286 6.3269e-06 deg
node 101.1206141533841 6.9885e-05 deg
peri 302.9372365510336 9.5634e-05 deg
M 220.9175766746833 6.3907e-05 deg
tp 2459639.317275567561
(2022-Feb-28.81727557)
0.00029545 TDB
period 1653.51029774918
4.53
2.2307e-05
6.107e-08
d
yr
n .2177186319855676 2.9371e-09 deg/d
Q 2.861526615964109 2.5736e-08 au
  Orbit Determination Parameters
   # obs. used (total)      119  
   data-arc span      5689 days (15.58 yr)  
   first obs. used      2003-09-26  
   last obs. used      2019-04-24  
   planetary ephem.      DE431  
   SB-pert. ephem.      SB431-N16  
   condition code      0  
   norm. resid. RMS      .62516  
   source      ORB  
   producer      Otto Matic  
   solution date      2019-Jul-14 09:19:47  

Additional Information
 Earth MOID = 1.62653 au 
 Jupiter MOID = 2.32621 au 
 T_jup = 3.343 
[ show covariance matrix ]

Ephemeris | Orbit Diagram | Orbital Elements | Mission Design | Physical Parameters | Discovery Circumstances | Close-Approach Data ]

Physical Parameter Table
Parameter Symbol Value Units Sigma Reference Notes
absolute magnitude H 16.9   n/a MPO434168  

344692 (2003 SL335)          Discovered 2003-Sep-26 by Sloan Digital Sky Survey at Apache Point
Reference: 20121128/Numbers.arcLast Updated: 2012-12-03

[ show close-approach data ]
Alternate Designations
 2003 SL335 = 2008 YA135 
Ephemeris | Orbit Diagram | Orbital Elements | Mission Design | Physical Parameters | Discovery Circumstances | Close-Approach Data ]
ABOUT SSD CREDITS/AWARDS PRIVACY/COPYRIGHT GLOSSARY LINKS
FirstGov 2020-Aug-13 21:28 UT
(server date/time)  
NASA Home Page
Site Manager:   Ryan S. Park
Webmaster  Alan B. Chamberlin